Regional Weather Roundup
Issued by NWS

Home | Current Version | Previous Version | Graphics & Text | Print | Product List | Glossary On
Versions: 1 2 3 4 5 6 7 8 9 10 11 12 13 14 15 16 17 18 19 20 21 22 23 24 25 26 27
000
ASUS45 KTFX 200610
RWRMT
MONTANA REGIONAL WEATHER ROUNDUP
NATIONAL WEATHER SERVICE GREAT FALLS MT
1200 AM MDT THU JUL 20 2017

NOTE: "FAIR" INDICATES FEW OR NO CLOUDS BELOW 12000 FEET WITH NO
SIGNIFICANT WEATHER AND/OR OBSTRUCTIONS TO VISIBILITY.

MTZ001>007-043-200700-
WEST OF THE DIVIDE

CITY           SKY/WX    TMP DP  RH WIND       PRES   REMARKS
KALISPELL      CLEAR     59  48  67 N3        29.95R
MISSOULA       CLEAR     69  40  34 CALM      29.96R
BUTTE          CLEAR     61  39  44 SE5       30.09S
MULLAN PASS    PTCLDY    63  36  36 NW5       30.14F
ANACONDA         N/A     63  39  42 SW6       30.06S
DEER LODGE       N/A     64  39  39 CALM      30.06R
EUREKA           N/A     64  37  36 MISG      29.93S
HAMILTON         N/A     64  48  55 S3        29.98S
LIBBY            N/A     66  39  37 CALM      29.93R
$$

MTZ008-052>055-200700-
SOUTHWEST MONTANA

CITY           SKY/WX    TMP DP  RH WIND       PRES   REMARKS
BOZEMAN        CLEAR     68  43  40 CALM      29.97F
DILLON         CLEAR     63  40  42 SW5       30.03R
W YELLOWSTONE  CLEAR     54  34  47 CALM      30.20S
ENNIS          CLEAR     68  32  26 S8        30.08S
$$

MTZ009-010-012-014-046-048-049-054-200700-
EAST SLOPES AND CENTRAL MONTANA

CITY           SKY/WX    TMP DP  RH WIND       PRES   REMARKS
CUT BANK       CLEAR     67  34  29 SE6       30.01R
GREAT FALLS    CLEAR     72  31  22 E12       29.98S
HELENA         PTCLDY    75  39  27 SW7       29.96F
CHOTEAU          N/A     64  36  34 NW5       30.04R
$$

MTZ011-013-016-021-045-047-050-051-200700-
NORTH CENTRAL MONTANA

CITY           SKY/WX    TMP DP  RH WIND       PRES   REMARKS
HAVRE          CLEAR     64  35  34 CALM      29.96S
LEWISTOWN      CLEAR     63  37  38 SE5       30.05S
N BAR RANCH      N/A     59  32  36 NW5       30.10F
CHINOOK          N/A     63  41  45 CALM      29.95S
$$

MTZ017>020-022>027-061-062-200700-
NORTHEAST MONTANA

CITY           SKY/WX    TMP DP  RH WIND       PRES   REMARKS
JORDAN           N/A     65  44  46 CALM      29.96S
SIDNEY         CLEAR     66  51  58 CALM      29.94R
WOLF POINT     CLEAR     71  47  42 E8        29.94R
MALTA          CLEAR     64  43  45 NE3       29.94R
PLENTYWOOD       N/A     68  50  52 E9        29.98R
POPLAR           N/A     72  50  46 NE14G21   29.93F
$$

MTZ028>42-056>058-200700-
SOUTHCENTRAL AND SOUTHEAST MONTANA

CITY           SKY/WX    TMP DP  RH WIND       PRES   REMARKS
BAKER          CLEAR     72  52  49 S13       30.03S
BILLINGS       CLEAR     76  40  27 N3        29.98F
LIVINGSTON     CLEAR     72  42  34 SE9       30.01F
MILES CITY     CLEAR     77  45  32 S3        29.96F
BIG TIMBER     CLEAR     70  41  35 N12       30.06S
FORSYTH          N/A     79  39  24 E3        29.96F
LAUREL           N/A     77  41  27 NE6       29.98S
$$

REGIONAL REPORTS...DAKOTAS

CITY           SKY/WX    TMP DP  RH WIND       PRES   REMARKS
WILLISTON      CLEAR     73  55  53 E9        29.96R
MINOT          PTCLDY    65  60  84 N8        29.98R
DICKINSON      CLEAR     66  58  75 S12       30.00R
BEACH            N/A     66  54  63 SE12      30.03S
CROSBY           N/A     57  54  88 SE6       29.99S
TIOGA            N/A     63  61  94 NE8       30.01R
WATFORD CITY     N/A     68  57  68 E8        29.95S
BISMARCK       CLEAR     69  63  81 CALM      29.99R
GRAND FORKS    CLEAR     62  61  96 W5        29.93R
FARGO          CLEAR     68  66  93 SW6       29.94R
BUFFALO SD       N/A     69  58  67 SE8       30.01S
RAPID CITY     CLOUDY    74  59  59 N12       30.08S
$$

REGIONAL REPORTS...WYOMING/IDAHO/WASHINGTON

CITY           SKY/WX    TMP DP  RH WIND       PRES   REMARKS
GILLETTE       CLOUDY    75  57  53 SE8       30.12R
SHERIDAN       PTCLDY    69  50  50 S7        30.04F
BUFFALO WY     CLOUDY    73  45  36 S7        30.15S
CODY           CLOUDY    69  44  40 SW3       30.12R
YELLOWSTONE LA   N/A     47  37  68 NW3       30.33F
IDAHO FALLS    CLEAR     72  48  42 CALM      30.06S
BOISE          CLEAR     77  34  21 S10       29.89S
SPOKANE        MOCLDY    75  36  24 SW7       29.91S
$$

REGIONAL REPORTS...ALBERTA

CITY           SKY/WX    TMP DP  RH WIND       PRES   REMARKS
EDMONTON       CLEAR     61  52  72 SW6       29.91S
CALGARY        PTCLDY    63  50  63 NE3       29.96S SMOKE
LETHBRIDGE     CLEAR     55  45  67 S7        29.94S
MEDICINE HAT   CLEAR     63  45  51 SE3       29.92R
WATERTON GATE    N/A     50  39  66 SW7         N/A
$$

REGIONAL REPORTS...SASKATCHEWAN

CITY           SKY/WX    TMP DP  RH WIND       PRES   REMARKS
SWIFT CURRENT  CLEAR     59  46  63 SE7       29.97S
REGINA         PTCLDY    57  50  77 E6        30.00R
SASKATOON      MOCLDY    61  52  72 S3        29.92S
VAL MARIE        N/A     63  45  51 E8          N/A
ROCKGLEN         N/A     61  46  59 E7          N/A
ASSINIBOIA       N/A     55  54  94 S5          N/A
$$




USA.gov is the U.S. government's official web portal to all federal, state and local government web resources and services.